Location: Nebraska Star Party
(42.6000°N, 100.8833°W)
Time: 00:50:45
(UTC-05:00)

Amateur Radio Satellites - All Passes

Search period start: 01 April 2015 00:20
Search period end: 02 April 2015 00:20
Location: Nebraska Star Party, 42.6000°N, 100.8833°W

Satellite Date Start Highest point End Downlink Frequencies (MHz)
Time Altitude Azimuth
TISAT 1 01 Apr 00:24:59 00:28:24 25° 68° (ENE) 00:31:54 437.305
NANOSAT C BR1 01 Apr 00:29:37 00:33:39 43° 98° (E) 00:37:42 145.865
POLYITAN 1 01 Apr 00:36:16 00:40:26 53° 100° (E) 00:44:36 437.675
YUBILEINY 01 Apr 00:38:40 00:46:21 33° 67° (ENE) 00:54:09 435.215
SPROUT 01 Apr 00:44:39 00:48:45 47° 73° (ENE) 00:52:54 437.525
CUBEBUG 1 01 Apr 00:46:20 00:50:32 42° 262° (W) 00:54:42 437.445
SWISSCUBE 01 Apr 00:52:55 00:54:06 11° 60° (ENE) 00:55:32 437.505
BEESAT 01 Apr 00:55:35 00:56:35 11° 59° (ENE) 00:57:48 436.000
VELOX 1 01 Apr 00:56:01 00:58:58 17° 269° (W) 01:01:44 145.980
AISAT 01 Apr 01:02:33 01:04:59 14° 271° (W) 01:07:12 437.250
ISS 01 Apr 01:05:36 01:08:11 21° 345° (NNW) 01:10:46 145.825
UNISAT 6 01 Apr 01:06:45 01:11:04 39° 289° (WNW) 01:15:23 437.425
PCSat 01 Apr 01:08:01 01:13:13 46° 247° (WSW) 01:18:21 145.827
QB50P1 01 Apr 01:11:52 01:16:03 62° 286° (WNW) 01:20:15 145.935-145.965
DUCHIFAT 1 01 Apr 01:12:05 01:16:16 63° 286° (WNW) 01:20:26 145.980
TIGRISAT 01 Apr 01:15:50 01:19:57 33° 290° (WNW) 01:24:06 435.000
QB50P2 01 Apr 01:27:52 01:31:52 40° 288° (WNW) 01:35:50 145.880/145.840
BUGSAT 1 01 Apr 01:40:28 01:44:16 40° 288° (WNW) 01:48:02 437.445
ITUPSAT 1 01 Apr 01:40:46 01:44:50 28° 67° (ENE) 01:48:59 437.325
ESTCUBE 1 01 Apr 01:42:24 01:44:00 11° 273° (W) 01:45:20 437.505/2401.250
ANTELSAT 01 Apr 01:48:33 01:51:33 17° 295° (WNW) 01:54:26 437.575/2403.000
POPSAT HIP 1 01 Apr 01:56:35 01:59:52 22° 293° (WNW) 02:03:04 437.405
SO-50 01 Apr 01:58:47 02:00:20 11° 29° (NNE) 02:02:03 436.795
TISAT 1 01 Apr 02:00:26 02:04:09 29° 265° (W) 02:07:48 437.305
NANOSAT C BR1 01 Apr 02:06:21 02:09:14 18° 294° (WNW) 02:11:59 145.865
POLYITAN 1 01 Apr 02:13:30 02:15:59 15° 296° (WNW) 02:18:21 437.675
SPROUT 01 Apr 02:22:31 02:25:11 15° 270° (W) 02:27:41 437.525
SWISSCUBE 01 Apr 02:26:28 02:31:17 86° 73° (ENE) 02:36:08 437.505
RS-15 01 Apr 02:27:16 02:36:58 32° 27° (NNE) 02:47:13 29.354- 29.394
BEESAT 01 Apr 02:28:56 02:33:44 84° 76° (ENE) 02:38:35 436.000
YUBILEINY 01 Apr 02:35:07 02:43:43 57° 269° (W) 02:52:09 435.215
ISS 01 Apr 02:43:11 02:45:25 17° 5° (N) 02:47:39 145.825
Oscar 19 01 Apr 03:04:04 03:09:10 57° 100° (E) 03:14:17 437.125/150
ITUPSAT 1 01 Apr 03:18:18 03:22:39 33° 264° (W) 03:26:59 437.325
O/OREOS (USA 219) 01 Apr 03:22:09 03:22:52 10° 98° (E) 03:23:54 437.305
KKS-1 01 Apr 03:28:24 03:32:48 66° 74° (ENE) 03:37:13 437.445
SO-50 01 Apr 03:37:21 03:42:09 48° 50° (NE) 03:46:56 436.795
Gurwin Techsat 1B 01 Apr 03:42:23 03:47:11 34° 96° (E) 03:52:02 435.225
STARS 01 Apr 03:53:37 03:57:59 79° 76° (ENE) 04:02:23 437.465
SWISSCUBE 01 Apr 04:09:17 04:09:55 10° 274° (W) 04:10:13 437.505
BEESAT 01 Apr 04:11:20 04:12:20 10° 274° (W) 04:13:00 436.000
ITAMSAT 1 01 Apr 04:15:54 04:21:07 84° 102° (ESE) 04:26:18 435.822/435.867
ISS 01 Apr 04:19:25 04:22:28 37° 25° (NNE) 04:25:31 145.825
AIST 1 01 Apr 04:31:38 04:35:42 38° 92° (E) 04:39:48
AO-7 01 Apr 04:37:44 04:43:46 23° 90° (E) 04:50:09 29.400- 29.500
RS-15 01 Apr 04:39:56 04:51:29 81° 55° (NE) 05:03:33 29.354- 29.394
Oscar 19 01 Apr 04:44:25 04:48:09 20° 297° (WNW) 04:51:44 437.125/150
JAS-2 01 Apr 04:46:47 04:52:37 24° 87° (E) 04:58:17 435.910
O/OREOS (USA 219) 01 Apr 04:57:07 05:01:43 79° 293° (WNW) 05:06:20 437.305
AUBIESAT-1 01 Apr 05:02:00 05:04:57 19° 59° (ENE) 05:08:11 437.475
KKS-1 01 Apr 05:08:13 05:09:59 12° 272° (W) 05:11:30 437.445
SO-50 01 Apr 05:18:29 05:22:27 24° 247° (WSW) 05:26:17 436.795
Gurwin Techsat 1B 01 Apr 05:22:27 05:27:08 32° 293° (WNW) 05:31:45 435.225
MOZHAYETS 4 01 Apr 05:24:09 05:28:43 64° 75° (ENE) 05:33:20
M-CUBED/EXP-1 PRIME 01 Apr 05:27:58 05:31:47 37° 64° (ENE) 05:35:57 437.505
VERMONT LUNAR 01 Apr 05:29:03 05:31:54 26° 158° (SSE) 05:34:46 437.305
HORYU 2 01 Apr 05:32:37 05:37:09 84° 284° (WNW) 05:41:40 437.375
ISS 01 Apr 05:55:55 05:58:49 30° 222° (SW) 06:01:41 145.825
ITAMSAT 1 01 Apr 05:57:20 06:00:00 14° 300° (WNW) 06:02:27 435.822/435.867
STRAND 1 01 Apr 06:07:47 06:08:42 11° 58° (ENE) 06:09:55 437.568
AIST 1 01 Apr 06:10:19 06:13:34 19° 290° (WNW) 06:16:41
AO-7 01 Apr 06:29:13 06:37:32 79° 290° (WNW) 06:45:49 29.400- 29.500
JAS-2 01 Apr 06:30:43 06:38:27 70° 288° (WNW) 06:45:26 435.910
PHONESAT 2.4 01 Apr 06:34:15 06:37:26 32° 160° (SSE) 06:40:38 2401.200-2431.200
AUBIESAT-1 01 Apr 06:35:26 06:39:25 47° 257° (WSW) 06:43:45 437.475
O/OREOS (USA 219) 01 Apr 06:40:49 06:42:02 11° 314° (NW) 06:43:02 437.305
PRISM 01 Apr 06:52:19 06:56:06 33° 70° (ENE) 06:59:55 437.425
GONETS M04 01 Apr 06:52:36 07:01:07 51° 74° (ENE) 07:09:41
RS-15 01 Apr 06:53:28 07:03:00 30° 255° (WSW) 07:12:24 29.354- 29.394
CUTE-I 01 Apr 07:00:04 07:03:36 18° 90° (E) 07:07:18 437.470
Cubesat XI-IV 01 Apr 07:01:05 07:04:44 19° 90° (E) 07:08:33 437.490
M-CUBED/EXP-1 PRIME 01 Apr 07:03:37 07:06:52 22° 264° (W) 07:10:13 437.505
MOZHAYETS 4 01 Apr 07:04:06 07:06:29 13° 272° (W) 07:08:38
VERMONT LUNAR 01 Apr 07:06:00 07:09:17 57° 175° (S) 07:12:35 437.305
CUBESAT XI-V 01 Apr 07:19:35 07:24:18 80° 75° (ENE) 07:29:00 437.345
STRAND 1 01 Apr 07:42:00 07:47:08 75° 73° (ENE) 07:52:18 437.568
CUSAT 1 01 Apr 07:45:58 07:49:54 29° 75° (ENE) 07:54:58 437.405
PHONESAT 2.4 01 Apr 08:12:01 08:15:31 61° 177° (S) 08:19:01 2401.200-2431.200
JAS-2 01 Apr 08:17:44 08:22:09 16° 307° (NW) 08:26:05 435.910
AO-7 01 Apr 08:23:37 08:29:13 20° 310° (NW) 08:34:29 29.400- 29.500
PRISM 01 Apr 08:28:21 08:31:40 22° 266° (W) 08:34:56 437.425
CUTE-I 01 Apr 08:38:54 08:44:09 58° 288° (WNW) 08:49:20 437.470
Cubesat XI-IV 01 Apr 08:40:04 08:45:17 56° 288° (WNW) 08:50:28 437.490
VERMONT LUNAR 01 Apr 08:43:34 08:46:49 48° 191° (SSW) 08:50:03 437.305
GONETS M04 01 Apr 08:49:52 08:57:47 37° 274° (W) 09:05:31
DANDE 01 Apr 08:54:02 08:58:18 87° 261° (W) 09:04:07 436.750
HO-68 01 Apr 08:56:13 08:59:05 13° 84° (E) 09:02:28 435.675
CUBESAT XI-V 01 Apr 09:01:13 09:02:25 11° 274° (W) 09:03:20 437.345
CANX-2 01 Apr 09:15:57 09:17:15 11° 87° (E) 09:18:46 2200.000
GOMX 1 01 Apr 09:16:26 09:18:30 13° 90° (E) 09:20:49 467.674
STRAND 1 01 Apr 09:24:25 09:27:00 13° 272° (W) 09:29:18 437.568
CUSAT 1 01 Apr 09:28:27 09:32:40 33° 264° (W) 09:37:58 437.405
CUTE 1.7 + AOD 2 01 Apr 09:28:32 09:30:51 14° 89° (E) 09:33:20 437.475
BEESAT 3 01 Apr 09:38:00 09:40:21 15° 111° (ESE) 09:42:53 437.485
AAUSAT CUBESAT 2 01 Apr 09:41:46 09:43:05 11° 88° (E) 09:44:37 437.432
PHONESAT 2.4 01 Apr 09:50:17 09:53:40 45° 194° (SSW) 09:57:03 2401.200-2431.200
SEEDS 01 Apr 09:52:18 09:55:36 22° 92° (E) 09:59:00 437.485
COMPASS 1 01 Apr 10:09:39 10:13:17 27° 94° (E) 10:16:58 437.405
VERMONT LUNAR 01 Apr 10:21:43 10:24:06 18° 207° (SSW) 10:26:25 437.305
BRITE-PL 01 Apr 10:22:19 10:26:33 79° 284° (WNW) 10:31:00 437.365/2234.400
DOVE 4 01 Apr 10:26:14 10:30:31 50° 100° (E) 10:35:01 437.250
Oscar 11 01 Apr 10:29:25 10:32:30 19° 91° (E) 10:35:42 145.826/435.025
UNISAT 6 01 Apr 10:31:02 10:34:08 20° 66° (ENE) 10:37:23 437.425
QB50P1 01 Apr 10:33:02 10:33:58 11° 62° (ENE) 10:35:08 145.935-145.965
DUCHIFAT 1 01 Apr 10:33:13 10:33:56 10° 62° (ENE) 10:34:53 145.980
AIST 2 01 Apr 10:34:39 10:37:33 19° 112° (ESE) 10:40:36 435.215
DELFI C3 01 Apr 10:35:54 10:38:27 16° 91° (E) 10:41:08 145.870
TIGRISAT 01 Apr 10:39:26 10:42:49 24° 67° (ENE) 10:46:19 435.000
BEESAT 2 01 Apr 10:40:43 10:44:46 60° 120° (ESE) 10:48:53 435.950
HO-68 01 Apr 10:40:54 10:48:09 78° 105° (ESE) 10:55:21 435.675
FUNcube-1 01 Apr 10:46:35 10:49:13 16° 90° (E) 10:52:02 145.935
QB50P2 01 Apr 10:47:19 10:49:49 16° 65° (ENE) 10:52:29 145.880/145.840
CANX-2 01 Apr 10:49:25 10:53:43 66° 286° (WNW) 10:57:59 2200.000
GOMX 1 01 Apr 10:52:47 10:57:02 57° 286° (WNW) 11:01:30 467.674
BUGSAT 1 01 Apr 10:57:45 10:59:51 14° 65° (ENE) 11:02:07 437.445
UWE-3 01 Apr 10:58:30 11:02:15 27° 94° (E) 11:06:08 435.000/436.395/437.385
ZACube-1 01 Apr 11:00:06 11:03:33 22° 93° (E) 11:07:08 437.345
CUTE 1.7 + AOD 2 01 Apr 11:02:56 11:07:09 51° 287° (WNW) 11:11:20 437.475
CUBEBUG 2 01 Apr 11:09:58 11:14:13 42° 98° (E) 11:18:36 437.445
ANTELSAT 01 Apr 11:10:33 11:14:42 51° 73° (ENE) 11:18:57 437.575/2403.000
BEESAT 3 01 Apr 11:14:01 11:18:02 53° 307° (NW) 11:22:06 437.485
POPSAT HIP 1 01 Apr 11:14:05 11:17:42 29° 69° (ENE) 11:21:22 437.405
AAUSAT CUBESAT 2 01 Apr 11:15:01 11:19:13 63° 285° (WNW) 11:23:23 437.432
CINEMA 3 01 Apr 11:19:20 11:23:49 84° 286° (WNW) 11:28:30 145.822/145.860
NANOSAT C BR1 01 Apr 11:23:03 11:26:53 36° 71° (ENE) 11:30:46 145.865
HUMSAT D 01 Apr 11:25:36 11:28:46 20° 92° (E) 11:32:03 437.325/437.525
SEEDS 01 Apr 11:27:38 11:31:31 33° 289° (WNW) 11:35:21 437.485
PHONESAT 2.4 01 Apr 11:29:19 11:31:33 16° 209° (SSW) 11:33:43 2401.200-2431.200
POLYITAN 1 01 Apr 11:30:07 11:34:06 43° 72° (ENE) 11:38:07 437.675
50 SAT 01 Apr 11:35:00 11:37:29 16° 91° (E) 11:40:07 437.505
UKube-1 01 Apr 11:36:26 11:40:24 35° 97° (E) 11:44:23 .
COMPASS 1 01 Apr 11:45:20 11:48:56 26° 291° (WNW) 11:52:28 437.405
DX 1 01 Apr 11:50:50 11:55:06 54° 100° (E) 11:59:21 434.975-435.025
ESTCUBE 1 01 Apr 11:55:40 11:58:02 14° 89° (E) 12:00:35 437.505/2401.250
Oscar 11 01 Apr 12:04:47 12:08:53 40° 289° (WNW) 12:12:57 145.826/435.025
DUCHIFAT 1 01 Apr 12:05:01 12:09:14 78° 258° (WSW) 12:13:27 145.980
QB50P1 01 Apr 12:05:07 12:09:19 76° 258° (WSW) 12:13:33 145.935-145.965
DOVE 4 01 Apr 12:05:09 12:08:01 17° 294° (WNW) 12:10:48 437.250
UNISAT 6 01 Apr 12:06:43 12:10:43 38° 263° (W) 12:14:47 437.425
DELFI C3 01 Apr 12:09:59 12:13:53 41° 288° (WNW) 12:17:43 145.870
AIST 2 01 Apr 12:11:43 12:15:51 47° 308° (NW) 12:20:02 435.215
TIGRISAT 01 Apr 12:15:38 12:19:28 31° 264° (W) 12:23:19 435.000
BEESAT 2 01 Apr 12:20:23 12:23:19 18° 319° (NW) 12:26:11 435.950
QB50P2 01 Apr 12:21:18 12:25:24 48° 261° (W) 12:29:30 145.880/145.840
FUNcube-1 01 Apr 12:21:35 12:25:53 50° 287° (WNW) 12:30:13 145.935
HO-68 01 Apr 12:29:46 12:35:13 23° 303° (WNW) 12:40:27 435.675
BUGSAT 1 01 Apr 12:30:55 12:34:58 53° 260° (W) 12:39:00 437.445
CUBEBUG 1 01 Apr 12:34:36 12:38:29 32° 96° (E) 12:42:23 437.445
UWE-3 01 Apr 12:34:53 12:38:48 30° 290° (WNW) 12:42:45 435.000/436.395/437.385
ZACube-1 01 Apr 12:35:58 12:40:01 35° 289° (WNW) 12:44:06 437.345
VELOX 1 01 Apr 12:43:58 12:48:24 88° 98° (E) 12:52:48 145.980
Oscar 19 01 Apr 12:46:13 12:48:04 12° 59° (ENE) 12:50:11 437.125/150
CUBEBUG 2 01 Apr 12:47:22 12:50:41 20° 293° (WNW) 12:53:57 437.445
ANTELSAT 01 Apr 12:49:29 12:51:55 14° 271° (W) 12:54:11 437.575/2403.000
POPSAT HIP 1 01 Apr 12:50:06 12:53:36 24° 266° (W) 12:57:02 437.405
AISAT 01 Apr 12:50:07 12:54:33 77° 285° (WNW) 12:58:56 437.250
NANOSAT C BR1 01 Apr 12:59:44 13:02:54 20° 268° (W) 13:05:56 145.865
HUMSAT D 01 Apr 13:00:44 13:04:40 36° 289° (WNW) 13:08:36 437.325/437.525
POLYITAN 1 01 Apr 13:07:34 13:10:18 16° 269° (W) 13:12:53 437.675
50 SAT 01 Apr 13:08:48 13:12:38 41° 288° (WNW) 13:16:27 437.505
UKube-1 01 Apr 13:13:00 13:16:24 22° 293° (WNW) 13:19:40 .
O/OREOS (USA 219) 01 Apr 13:27:47 13:31:31 25° 56° (NE) 13:35:16 437.305
DX 1 01 Apr 13:28:21 13:30:58 15° 296° (WNW) 13:33:26 434.975-435.025
ESTCUBE 1 01 Apr 13:30:54 13:35:21 56° 287° (WNW) 13:39:44 437.505/2401.250
YUBILEINY 01 Apr 13:40:46 13:48:26 37° 86° (E) 13:56:19 435.215
TISAT 1 01 Apr 13:43:52 13:47:49 39° 98° (E) 13:51:47 437.305
ITAMSAT 1 01 Apr 13:57:17 14:00:46 19° 63° (ENE) 14:04:25 435.822/435.867
SPROUT 01 Apr 14:06:25 14:10:43 87° 102° (ESE) 14:15:01 437.525
PCSat 01 Apr 14:08:31 14:12:19 20° 107° (ESE) 14:16:18 145.827
CUBEBUG 1 01 Apr 14:11:14 14:14:44 24° 293° (WNW) 14:18:09 437.445
Oscar 19 01 Apr 14:21:37 14:26:45 87° 71° (ENE) 14:31:55 437.125/150
VELOX 1 01 Apr 14:23:48 14:24:21 10° 299° (WNW) 14:24:39 145.980
SWISSCUBE 01 Apr 14:27:02 14:30:35 21° 92° (E) 14:34:15 437.505
BEESAT 01 Apr 14:29:25 14:32:56 20° 92° (E) 14:36:32 436.000
AIST 1 01 Apr 14:40:26 14:41:19 11° 64° (ENE) 14:42:27
HORYU 2 01 Apr 14:58:48 14:59:52 11° 61° (ENE) 15:01:11 437.375
JAS-2 01 Apr 15:01:46 15:05:04 14° 51° (NE) 15:08:51 435.910
Gurwin Techsat 1B 01 Apr 15:04:03 15:09:14 58° 72° (ENE) 15:14:28 435.225
O/OREOS (USA 219) 01 Apr 15:06:53 15:11:03 35° 254° (WSW) 15:15:08 437.305
ITUPSAT 1 01 Apr 15:17:38 15:22:25 61° 101° (E) 15:27:08 437.325
TISAT 1 01 Apr 15:20:23 15:23:23 19° 294° (WNW) 15:26:16 437.305
KKS-1 01 Apr 15:20:54 15:22:34 12° 88° (E) 15:24:29 437.445
ITAMSAT 1 01 Apr 15:34:41 15:39:51 61° 259° (W) 15:45:02 435.822/435.867
YUBILEINY 01 Apr 15:36:30 15:45:03 51° 286° (WNW) 15:53:36 435.215
AO-7 01 Apr 15:37:23 15:44:36 36° 59° (ENE) 15:51:59 29.400- 29.500
STARS 01 Apr 15:44:20 15:46:32 14° 89° (E) 15:48:57 437.465
PCSat 01 Apr 15:49:59 15:55:20 59° 304° (NW) 16:00:43 145.827
SWISSCUBE 01 Apr 16:04:09 16:08:41 43° 289° (WNW) 16:13:10 437.505
Oscar 19 01 Apr 16:05:23 16:06:55 11° 274° (W) 16:08:07 437.125/150
BEESAT 01 Apr 16:06:28 16:11:02 44° 289° (WNW) 16:15:32 436.000
AIST 1 01 Apr 16:15:19 16:19:38 70° 264° (W) 16:23:51
HORYU 2 01 Apr 16:31:29 16:35:56 84° 257° (WSW) 16:40:25 437.375
JAS-2 01 Apr 16:41:40 16:48:38 62° 70° (ENE) 16:56:16 435.910
Gurwin Techsat 1B 01 Apr 16:45:56 16:49:40 18° 270° (W) 16:53:13 435.225
KKS-1 01 Apr 16:55:19 16:59:45 65° 286° (WNW) 17:04:09 437.445
ITUPSAT 1 01 Apr 16:56:49 16:59:52 17° 297° (WNW) 17:02:45 437.325
STARS 01 Apr 17:19:06 17:23:26 56° 287° (WNW) 17:27:45 437.465
MOZHAYETS 4 01 Apr 17:20:10 17:22:38 15° 88° (E) 17:25:19
AO-7 01 Apr 17:29:00 17:37:09 56° 258° (WSW) 17:45:16 29.400- 29.500
PCSat 01 Apr 17:37:30 17:40:01 13° 326° (NW) 17:42:21 145.827
BEESAT 3 01 Apr 17:55:23 17:57:56 16° 39° (NE) 18:00:33 437.485
SO-50 01 Apr 17:55:34 17:57:12 12° 108° (ESE) 17:59:05 436.795
AUBIESAT-1 01 Apr 18:17:24 18:19:53 14° 93° (E) 18:22:32 437.475
CUTE-I 01 Apr 18:22:15 18:26:58 33° 67° (ENE) 18:31:46 437.470
Cubesat XI-IV 01 Apr 18:23:27 18:28:14 35° 67° (ENE) 18:33:05 437.490
JAS-2 01 Apr 18:28:12 18:34:14 28° 271° (W) 18:40:33 435.910
M-CUBED/EXP-1 PRIME 01 Apr 18:43:41 18:47:56 30° 99° (E) 18:52:05 437.505
AIST 2 01 Apr 18:55:01 18:58:05 19° 41° (NE) 19:01:11 435.215
MOZHAYETS 4 01 Apr 18:55:45 19:00:20 58° 287° (WNW) 19:04:53
BEESAT 2 01 Apr 18:59:39 19:03:40 46° 52° (NE) 19:07:37 435.950
RS-15 01 Apr 19:04:43 19:14:48 48° 112° (ESE) 19:25:11 29.354- 29.394
CUBESAT XI-V 01 Apr 19:16:41 19:19:54 19° 91° (E) 19:23:14 437.345
HO-68 01 Apr 19:27:26 19:30:18 13° 50° (NE) 19:33:31 435.675
BEESAT 3 01 Apr 19:32:23 19:36:30 70° 239° (WSW) 19:40:31 437.485
SO-50 01 Apr 19:32:27 19:37:06 82° 304° (NW) 19:41:56 436.795
AUBIESAT-1 01 Apr 19:50:24 19:55:13 68° 291° (WNW) 19:59:52 437.475
STRAND 1 01 Apr 19:52:33 19:56:34 24° 93° (E) 20:00:42 437.568
GONETS M04 01 Apr 19:54:17 20:02:38 56° 91° (E) 20:11:09
BRITE-PL 01 Apr 19:58:27 20:00:28 13° 65° (ENE) 20:02:39 437.365/2234.400
CUTE-I 01 Apr 20:02:12 20:07:02 33° 264° (W) 20:11:50 437.470
Cubesat XI-IV 01 Apr 20:03:33 20:08:22 32° 265° (W) 20:13:07 437.490
PRISM 01 Apr 20:09:14 20:13:17 48° 99° (E) 20:17:18 437.425
M-CUBED/EXP-1 PRIME 01 Apr 20:18:23 20:22:48 34° 296° (WNW) 20:27:01 437.505
CUTE 1.7 + AOD 2 01 Apr 20:23:20 20:25:00 12° 63° (ENE) 20:26:53 437.475
GOMX 1 01 Apr 20:25:56 20:28:30 16° 66° (ENE) 20:31:10 467.674
AIST 2 01 Apr 20:32:52 20:37:03 57° 241° (WSW) 20:41:08 435.215
BEESAT 2 01 Apr 20:38:39 20:41:30 18° 248° (WSW) 20:44:11 435.950
SEEDS 01 Apr 20:45:49 20:48:37 18° 66° (ENE) 20:51:33 437.485
CUBESAT XI-V 01 Apr 20:53:12 20:57:38 44° 288° (WNW) 21:01:59 437.345
CUSAT 1 01 Apr 20:59:11 21:00:44 15° 94° (E) 21:02:20 437.405
COMPASS 1 01 Apr 21:02:11 21:05:21 22° 68° (ENE) 21:08:38 437.405
HO-68 01 Apr 21:09:45 21:16:46 62° 69° (ENE) 21:23:52 435.675
SO-50 01 Apr 21:15:34 21:18:30 16° 326° (NW) 21:21:22 436.795
RS-15 01 Apr 21:16:28 21:27:07 55° 315° (NW) 21:38:01 29.354- 29.394
Oscar 11 01 Apr 21:25:32 21:28:17 17° 65° (ENE) 21:31:12 145.826/435.025
DELFI C3 01 Apr 21:25:41 21:27:18 12° 64° (ENE) 21:29:07 145.870
AUBIESAT-1 01 Apr 21:28:46 21:29:12 10° 307° (NW) 21:29:22 437.475
STRAND 1 01 Apr 21:31:10 21:35:59 42° 290° (WNW) 21:40:45 437.568
DOVE 4 01 Apr 21:33:03 21:37:12 53° 74° (ENE) 21:41:17 437.250
BRITE-PL 01 Apr 21:34:07 21:38:40 63° 259° (WSW) 21:42:58 437.365/2234.400
CANX-2 01 Apr 21:42:49 21:47:03 85° 257° (WSW) 21:51:21 2200.000
FUNcube-1 01 Apr 21:44:23 21:46:19 13° 64° (ENE) 21:48:27 145.935
PRISM 01 Apr 21:45:50 21:48:25 16° 296° (WNW) 21:50:51 437.425
GONETS M04 01 Apr 21:52:14 21:59:59 33° 293° (WNW) 22:07:38
CUTE 1.7 + AOD 2 01 Apr 21:56:13 22:00:26 67° 259° (W) 22:04:42 437.475
UWE-3 01 Apr 21:57:10 22:00:22 22° 68° (ENE) 22:03:40 435.000/436.395/437.385
ZACube-1 01 Apr 21:57:43 22:00:33 19° 67° (ENE) 22:03:34 437.345
GOMX 1 01 Apr 22:02:08 22:06:23 47° 261° (W) 22:10:29 467.674
AAUSAT CUBESAT 2 01 Apr 22:06:18 22:10:29 86° 257° (WSW) 22:14:44 437.432
CUBEBUG 2 01 Apr 22:09:26 22:13:13 36° 71° (ENE) 22:17:05 437.445
DANDE 01 Apr 22:10:27 22:13:13 48° 282° (WNW) 22:15:46 436.750
AISAT 01 Apr 22:15:32 22:16:55 12° 62° (ENE) 22:18:31 437.250
HUMSAT D 01 Apr 22:19:10 22:21:40 16° 66° (ENE) 22:24:18 437.325/437.525
SEEDS 01 Apr 22:20:08 22:24:09 42° 262° (W) 22:28:13 437.485
CINEMA 3 01 Apr 22:22:12 22:26:23 84° 257° (WSW) 22:30:33 145.822/145.860
50 SAT 01 Apr 22:23:31 22:24:37 11° 63° (ENE) 22:25:54 437.505
UKube-1 01 Apr 22:32:06 22:35:59 34° 70° (ENE) 22:39:55 .
ISS 01 Apr 22:34:44 22:37:53 51° 142° (SE) 22:41:04 145.825
COMPASS 1 01 Apr 22:37:04 22:40:53 33° 264° (W) 22:44:44 437.405
CUSAT 1 01 Apr 22:42:38 22:43:32 11° 291° (WNW) 22:44:18 437.405
DX 1 01 Apr 22:47:01 22:51:14 51° 72° (ENE) 22:55:30 434.975-435.025
PCSat 01 Apr 22:54:25 22:58:40 23° 44° (NE) 23:02:58 145.827
ESTCUBE 1 01 Apr 22:56:20 22:59:03 16° 64° (ENE) 23:01:54 437.505/2401.250
DELFI C3 01 Apr 22:57:59 23:02:01 61° 259° (W) 23:06:07 145.870
HO-68 01 Apr 22:59:08 23:05:02 26° 268° (W) 23:10:46 435.675
Oscar 11 01 Apr 22:59:59 23:04:10 46° 262° (W) 23:08:21 145.826/435.025
ANTELSAT 01 Apr 23:04:03 23:05:17 11° 87° (E) 23:06:48 437.575/2403.000
DOVE 4 01 Apr 23:13:23 23:15:24 13° 271° (W) 23:17:12 437.250
FUNcube-1 01 Apr 23:18:10 23:22:14 57° 260° (W) 23:26:23 145.935
CUBEBUG 1 01 Apr 23:31:35 23:35:24 30° 69° (ENE) 23:39:16 437.445
ZACube-1 01 Apr 23:32:50 23:36:43 38° 263° (W) 23:40:38 437.345
UWE-3 01 Apr 23:33:05 23:36:48 31° 264° (W) 23:40:30 435.000/436.395/437.385
RS-15 01 Apr 23:34:07 23:42:50 25° 346° (NNW) 23:51:40 29.354- 29.394
VELOX 1 01 Apr 23:42:08 23:46:35 86° 76° (ENE) 23:51:02 145.980
CUBEBUG 2 01 Apr 23:47:08 23:50:08 19° 268° (W) 23:53:01 437.445
AISAT 01 Apr 23:48:32 23:52:58 79° 257° (WSW) 23:57:26 437.250
YUBILEINY 01 Apr 23:50:14 23:55:48 19° 58° (ENE) 00:01:46 435.215
DUCHIFAT 1 01 Apr 23:50:25 23:52:57 16° 91° (E) 23:55:38 145.980
QB50P1 01 Apr 23:50:45 23:53:24 16° 91° (E) 23:56:11 145.935-145.965
HUMSAT D 01 Apr 23:53:11 23:57:07 44° 261° (W) 00:01:06 437.325/437.525
50 SAT 01 Apr 23:55:10 23:59:02 63° 259° (W) 00:02:58 437.505
UNISAT 6 01 Apr 23:57:26 00:01:47 40° 98° (E) 00:06:13 437.425
TIGRISAT 02 Apr 00:05:46 00:10:14 48° 99° (E) 00:14:46 435.000
QB50P2 02 Apr 00:06:20 00:09:49 25° 94° (E) 00:13:22 145.880/145.840
UKube-1 02 Apr 00:08:46 00:12:14 22° 266° (W) 00:15:37 .
ISS 02 Apr 00:11:34 00:14:26 28° 339° (NNW) 00:17:18 145.825
BUGSAT 1 02 Apr 00:13:15 00:16:09 19° 93° (E) 00:19:10 437.445
